#timestamp,LO_Frequency,Hit,StdDev 
1515657615.6,286047002.8,N
1515657635.4,286047000.3,N
1515657655.3,286046999.9,N
1515657675.1,286047002.1,N
1515657695.9,286047002.2,N
1515657715.7,286047002.1,N
1515657735.5,286047002.4,N
1515657755.4,286047002.1,N
1515657775.2,286047002.6,N
1515657795.1,286047001.6,N
1515657796.0,286047001.6,N
1515657815.8,286047001.3,N
1515657835.6,286047004.0,N
1515657855.5,286047004.1,N
1515657875.3,286047001.5,N
1515657895.1,286047002.5,N
1515657915.9,286047002.4,N
1515657935.7,286046999.7,N
1515657955.6,286047000.1,N
1515657975.4,286046999.8,N
1515657995.2,286047000.3,N
1515658015.1,286046999.9,N
1515658016.0,286046999.9,N
1515658035.8,286047000.0,N
1515658055.7,286047002.5,N
1515658075.5,286047001.6,N
1515658095.3,286047002.3,N
1515658115.2,286047002.0,N
1515658135.0,286047002.3,N
1515658135.9,286047002.3,N
1515658155.8,286047000.0,N
1515658175.6,286047002.3,N
1515658195.4,286047002.4,N
1515658215.3,286046999.9,N
1515658235.1,286046999.7,N
1515658255.8,286047002.7,N
1515658275.7,286047000.5,N
1515658295.5,286047000.6,N
1515658315.4,286047000.3,N
1515658335.2,286046999.7,N
1515658355.0,286047000.9,N
1515658355.9,286047000.9,N
1515658375.8,286046999.7,N
1515658395.6,286046999.8,N
1515658415.4,286047002.4,N
1515658435.3,286047000.1,N
1515658455.1,286047000.2,N
1515658475.9,286046999.7,N
1515658495.7,286047002.2,N
1515658515.5,286047004.4,Y
1515658535.4,286047003.9,P
1515658555.2,286047004.1,N
1515658575.1,286047003.0,N
1515658576.0,286047003.0,N
1515658595.8,286047003.3,N
1515658615.6,286047001.9,N
1515658635.5,286047002.4,N
1515658655.3,286046999.9,N
1515658675.1,286046998.2,N
1515658695.9,286047001.0,N
1515658715.7,286047001.1,N
1515658735.6,286047001.0,N
1515658755.4,286047000.6,N
1515658775.2,286047002.7,N
1515658795.1,286047002.1,N
1515658796.0,286047002.1,N
1515658815.8,286047000.0,N
1515658835.7,286047001.2,N
1515658855.5,286047002.3,N
1515658875.3,286046999.8,N
1515658895.2,286046999.8,N
1515658915.9,286047002.8,N
1515658935.7,286047002.0,N
1515658955.6,286046999.8,N
1515658975.4,286047001.0,N
1515658995.3,286047000.4,N
1515659015.1,286047001.0,N
1515659046.0,286047000.7,E
1515659055.0,286047000.8,N
1515659055.9,286047000.8,P
1515659075.8,286046998.4,P
1515659095.6,286047001.1,N
1515659115.5,286047002.7,N
1515659135.3,286047002.2,N
1515659155.1,286047001.7,N
1515659175.9,286047002.2,N
1515659195.7,286047000.3,N
1515659215.5,286047004.3,Y
1515659235.4,286047000.2,P
1515659255.2,286046998.5,P
1515659275.1,286046998.6,N
1515659276.0,286046998.6,N
1515659295.8,286046998.7,N
1515659315.6,286046998.1,N
1515659335.5,286047000.8,N
1515659355.3,286047001.0,N
1515659375.1,286047000.5,N
1515659395.9,286047002.1,N
1515659415.7,286047002.2,N
1515659435.6,286047004.4,Y
1515659455.4,286047003.6,P
1515659475.2,286047004.0,N
1515659495.1,286047001.8,N
1515659496.0,286047001.8,N
1515659515.8,286047000.6,N
1515659535.7,286046999.9,N
1515659555.5,286047002.4,N
1515659575.3,286047001.5,N
1515659595.2,286047002.2,N
1515659615.0,286047000.5,N
1515659615.9,286047000.5,N
1515659635.7,286046999.9,N
1515659655.6,286047002.4,N
1515659675.4,286047000.3,N
1515659695.3,286046998.3,N
1515659715.1,286046999.4,N
1515659735.8,286046997.0,N
1515659755.7,286046995.0,N
1515659775.5,286046998.0,N
1515659795.4,286046997.8,N
1515659815.2,286046997.7,N
1515659835.0,286046997.2,N
1515659835.9,286046997.2,N
1515659855.8,286046994.9,N
1515659875.6,286046997.6,N
1515659895.5,286046995.7,N
1515659915.3,286046995.3,N
1515659935.1,286046995.6,N
1515659955.9,286046995.4,N
1515659975.7,286046994.1,N
1515659995.5,286046994.2,N
1515660015.4,286046996.3,N
1515660035.2,286046993.6,N
1515660055.1,286046994.1,N
1515660056.0,286046994.1,N
1515660075.8,286046993.5,N
1515660095.6,286046993.4,N
1515660115.5,286046993.9,N
1515660135.3,286046994.2,N
1515660155.1,286046992.1,Y
1515660175.9,286046997.7,P
1515660195.7,286046998.0,P
1515660215.6,286046996.7,P
1515660235.4,286046995.1,Y
1515660255.2,286046996.6,P
1515660275.1,286046999.0,P
1515660276.0,286046999.0,N
1515660295.8,286046998.7,N
1515660315.7,286046996.5,Y
1515660335.5,286046998.1,P
1515660355.3,286046998.7,P
1515660375.2,286046996.5,P
1515660395.0,286046996.7,Y
1515660395.9,286046996.7,P
1515660415.8,286047000.9,N
1515660435.6,286047002.2,N
1515660455.4,286047002.5,N
1515660475.3,286046998.5,N
1515660495.1,286047001.0,N
1515660515.9,286047000.9,N
1515660535.7,286047002.7,N
1515660555.5,286047002.2,N
1515660575.4,286047001.7,N
1515660595.2,286047002.7,N
1515660615.0,286047000.5,N
1515660616.0,286047000.5,N
1515660635.8,286046998.4,N
1515660655.6,286047000.3,N
1515660675.5,286047000.5,N
1515660695.3,286047000.0,N
1515660715.1,286046998.1,N
1515660735.9,286047011.9,Y
1515660755.7,286046996.7,P
1515660775.6,286046998.3,N
1515660795.4,286047002.8,N
1515660815.2,286047000.5,N
1515660835.1,286046999.9,N
1515660836.0,286046999.9,N
1515660855.8,286047001.2,N
1515660875.6,286046998.5,N
1515660895.5,286046998.7,N
1515660915.3,286046996.8,N
1515660935.2,286046997.1,N
1515660955.9,286046997.2,N
1515660975.7,286046996.9,N
1515660995.6,286046999.4,N
1515661015.4,286046998.8,N
1515661035.2,286046998.4,N
1515661055.1,286046999.0,N
1515661056.0,286046999.0,N
1515661105.9,286046999.5,E
1515661115.8,286046996.5,N
1515661135.6,286046998.9,P
1515661155.5,286046996.6,N
1515661175.3,286046998.9,N
1515661195.1,286046999.0,N
